Temp
52 47 43 45 45 45 43 39 40 43 49 43 43 45 51 51 49 47 46 46 47 48 51 50 49 47 45 44 44 45 44 44 45 44 43 42 40 39 39 39 41 41 41 42
48 43 48 51 49 46 43 39 39 45 48 44 42 44 53 49 47 48 46 45 47 46 47 47 46 45 44 43 43 44 44 44 44 44 44 43 41 39 39 39 39 40 40 41
45 47 52 50 46 45 42 40 39 42 44 44 39 39 44 48 47 48 47 47 48 47 46 47 46 44 42 42 41 43 43 43 43 44 43 42 41 40 38 37 37 38 40 40
47 49 49 46 45 46 39 45 44 42 38 33 41 31 41 43 47 47 47 45 46 47 48 48 47 42 42 41 41 43 43 42 43 42 42 41 40 38 37 37 37 37 39 39
47 46 45 44 47 48 45 45 42 40 35 32 33 30 38 41 45 47 48 46 46 47 46 45 45 46 43 42 40 40 41 41 41 40 41 39 37 37 36 36 36 36 36 37
47 49 48 48 48 47 47 42 40 36 33 26 34 32 35 41 46 44 45 46 48 47 46 45 45 44 42 40 39 38 38 39 39 39 39 38 36 35 35 34 33 34 34 35
44 45 46 48 43 44 43 37 30 28 26 30 34 31 39 45 48 47 47 46 46 46 45 43 43 42 41 39 38 38 38 37 37 37 36 35 35 35 34 31 30 32 31 32
36 35 45 47 45 42 39 38 31 29 28 31 34 31 39 42 45 46 47 45 46 46 45 43 42 42 41 39 38 39 38 37 37 36 35 35 34 34 34 33 31 32 32 29
36 39 44 45 46 46 39 35 39 34 29 26 30 36 41 43 45 44 44 46 44 40 39 39 40 40 40 39 39 39 38 38 37 36 35 35 35 35 35 35 34 35 34 36
42 36 43 43 44 42 41 43 33 32 27 25 28 30 33 39 39 40 38 37 37 37 36 37 37 36 37 39 39 39 39 38 38 37 36 36 35 35 34 35 36 37 37 38
43 40 37 40 39 40 35 35 36 39 35 27 25 29 41 39 40 37 36 37 35 34 34 33 33 34 34 35 35 36 37 37 36 36 37 37 36 35 38 37 37 37 37 37
44 39 32 38 41 41 39 38 39 34 29 30 31 32 40 38 39 39 36 35 34 33 33 33 33 32 31 30 31 31 31 32 32 34 34 34 35 37 34 35 36 36 35 36
44 37 29 35 35 38 37 40 42 39 35 31 30 31 40 38 37 37 32 33 33 32 31 31 31 30 30 30 29 30 31 34 32 32 33 33 34 33 34 33 34 35 35 35
49 38 37 34 38 41 34 38 41 39 31 34 33 37 35 37 34 32 32 31 31 30 30 29 29 28 28 28 29 30 31 31 32 33 32 32 33 34 34 35 35 35 35 34
45 32 34 37 39 41 40 40 42 36 37 33 37 40 44 33 31 31 32 31 30 29 29 28 27 26 25 26 26 29 29 29 30 30 31 31 32 33 34 32 33 33 33 32
42 34 34 35 40 38 34 39 39 39 40 39 39 38 31 30 30 28 28 28 27 27 26 26 26 26 24 23 25 26 26 27 28 28 28 30 31 32 31 31 30 31 31 30
38 34 32 31 38 38 32 38 40 41 36 35 33 31 29 26 26 25 25 25 25 25 25 24 24 24 24 25 25 22 24 25 26 26 28 29 30 29 29 30 29 29 29 30
40 35 34 31 34 25 32 30 31 31 27 28 26 25 26 25 25 25 25 24 23 24 24 24 24 24 25 23 22 22 22 22 23 24 24 26 26 26 27 27 27 27 28 27
44 40 33 29 30 34 30 28 27 26 21 23 23 24 24 24 23 21 24 24 23 23 23 22 21 21 22 21 20 20 20 19 20 21 22 25 25 24 24 24 23 24 24 24
39 41 35 32 27 26 22 24 27 28 22 23 24 21 21 24 17 17 22 23 23 23 23 22 20 21 18 18 16 17 18 17 18 21 22 24 24 23 21 21 21 22 22 25
31 33 31 32 30 29 21 22 26 21 16 21 21 19 18 18 18 20 22 22 23 23 22 22 19 15 16 17 16 15 16 16 20 23 23 23 23 22 20 20 20 20 20 22
32 31 30 32 30 26 19 22 20 17 18 18 17 18 18 18 19 19 21 19 20 18 18 16 13 13 15 16 15 15 15 20 21 21 21 21 19 21 24 22 21 21 17 15
31 27 28 21 18 18 19 17 19 20 18 18 18 18 18 18 17 18 17 14 13 14 16 17 14 14 15 16 17 15 18 19 18 17 17 17 18 21 22 20 19 19 16 13
23 22 20 19 14 15 15 16 17 17 16 16 17 17 17 15 15 14 14 15 14 14 14 12 10 11 12 14 18 15 16 17 15 14 14 15 14 17 17 19 19 17 13 10
14 18 17 13 14 14 15 16 16 15 15 15 14 14 15 15 14 13 12 13 13 14 14 12 13 14 14 13 13 13 17 14 13 13 13 13 15 13 13 15 15 15 16 17
13 10 12 11 13 14 13 15 16 14 13 14 15 14 13 14 13 13 9 9 10 11 13 13 13 13 12 12 12 13 14 14 10 10 12 11 13 11 13 12 12 20 22 25
MSLP
1013.92 1014.66 1014.78 1014.74 1014.87 1015.03 1015.31 1015.64 1015.72 1015.05 1014.79 1015.03 1014.71 1013.85 1012.03 1012.13 1012.37 1012.74 1013.24 1013.73 1014.14 1014.47 1014.83 1015.67 1016.35 1017.02 1017.77 1018.30 1018.75 1019.13 1019.52 1019.84 1020.11 1020.44 1020.79 1021.06 1021.39 1021.56 1021.66 1021.56 1021.35 1021.40 1021.22 1021.00
1014.47 1014.60 1014.36 1014.53 1014.86 1015.14 1015.43 1015.67 1015.58 1015.02 1014.98 1015.36 1014.67 1013.78 1011.13 1011.21 1011.26 1011.49 1012.18 1012.90 1013.38 1014.24 1014.85 1015.70 1016.44 1017.06 1017.54 1018.05 1018.66 1019.05 1019.37 1019.76 1020.02 1020.25 1020.46 1020.62 1021.09 1021.56 1021.66 1021.66 1021.47 1021.45 1021.42 1021.28
1014.38 1014.23 1014.32 1014.62 1014.88 1015.18 1015.23 1015.46 1015.41 1015.61 1015.51 1015.18 1015.14 1013.83 1011.78 1010.87 1010.71 1010.79 1011.32 1011.81 1012.63 1013.45 1014.33 1015.25 1016.15 1016.74 1017.49 1018.07 1018.55 1018.96 1019.30 1019.63 1019.88 1020.15 1020.39 1020.68 1021.01 1021.52 1021.81 1021.89 1021.74 1021.69 1021.53 1021.38
1014.23 1014.16 1014.37 1014.64 1014.88 1015.07 1015.27 1014.87 1015.36 1015.83 1016.36 1016.47 1015.72 1014.75 1012.46 1011.10 1010.78 1010.77 1011.28 1011.95 1012.28 1012.97 1013.90 1014.79 1015.69 1016.61 1017.23 1017.81 1018.46 1018.84 1019.28 1019.67 1019.97 1020.18 1020.43 1020.73 1021.04 1021.51 1021.73 1021.86 1022.11 1022.05 1021.83 1021.76
1013.90 1014.18 1014.43 1014.64 1014.43 1014.64 1014.87 1015.04 1015.65 1016.11 1016.70 1017.09 1016.20 1016.07 1012.35 1011.42 1010.85 1010.67 1010.89 1011.65 1012.23 1012.79 1013.44 1014.26 1015.11 1015.82 1016.77 1017.64 1018.34 1018.87 1019.30 1019.72 1019.99 1020.20 1020.37 1020.78 1021.20 1021.49 1021.88 1022.15 1022.40 1022.49 1022.49 1022.21
1014.11 1014.08 1014.14 1013.97 1014.09 1014.39 1014.84 1015.27 1015.95 1016.74 1017.27 1017.36 1015.69 1015.48 1013.06 1011.60 1010.31 1010.37 1010.76 1011.34 1012.14 1012.91 1013.42 1014.38 1015.21 1016.13 1017.01 1017.77 1018.41 1018.97 1019.45 1019.92 1020.16 1020.38 1020.59 1020.84 1021.27 1021.62 1021.99 1022.48 1022.73 1022.85 1022.83 1022.75
1014.29 1014.08 1013.96 1014.05 1014.48 1014.74 1015.13 1015.96 1016.84 1017.34 1017.63 1016.63 1015.47 1015.44 1012.47 1011.10 1010.72 1010.60 1010.95 1011.79 1012.38 1013.13 1013.95 1014.84 1015.54 1016.29 1017.20 1018.06 1018.65 1019.15 1019.61 1020.07 1020.35 1020.63 1020.85 1021.12 1021.40 1021.69 1022.06 1022.45 1022.80 1022.91 1023.01 1023.11
1014.71 1014.11 1013.88 1013.98 1014.18 1014.54 1015.33 1015.85 1017.00 1017.24 1017.35 1016.28 1015.56 1014.30 1012.02 1011.86 1011.61 1011.55 1011.90 1012.39 1013.18 1013.82 1014.68 1015.57 1016.05 1016.61 1017.32 1018.05 1018.70 1019.18 1019.59 1020.04 1020.43 1020.73 1021.02 1021.27 1021.45 1021.81 1022.23 1022.55 1022.72 1022.85 1022.93 1023.00
1014.40 1014.13 1013.72 1013.97 1014.05 1014.42 1015.38 1015.79 1015.86 1016.54 1016.96 1016.76 1014.90 1013.33 1012.31 1012.36 1012.68 1013.07 1013.51 1013.78 1014.75 1015.85 1016.69 1017.14 1017.40 1017.67 1018.09 1018.58 1019.03 1019.40 1019.80 1020.19 1020.52 1020.79 1021.08 1021.33 1021.56 1021.74 1022.08 1022.35 1022.58 1022.75 1022.85 1022.84
1013.68 1014.09 1013.86 1014.29 1014.49 1014.84 1015.06 1015.51 1016.18 1016.83 1017.20 1016.47 1014.80 1014.05 1012.96 1013.34 1014.19 1014.77 1015.36 1015.95 1016.77 1017.67 1018.32 1018.89 1018.85 1019.11 1019.31 1019.40 1019.54 1019.78 1019.96 1020.25 1020.60 1020.91 1021.07 1021.27 1021.40 1021.59 1021.78 1022.06 1022.29 1022.47 1022.66 1022.71
1013.78 1014.51 1014.53 1014.66 1014.51 1014.40 1015.61 1015.58 1015.97 1016.20 1016.63 1016.32 1015.67 1014.07 1013.53 1014.09 1015.06 1015.96 1016.93 1017.85 1018.63 1018.95 1019.44 1020.34 1020.33 1020.49 1020.71 1020.69 1020.55 1020.49 1020.45 1020.52 1020.78 1020.98 1021.27 1021.59 1021.71 1021.89 1021.99 1022.06 1022.01 1022.23 1022.49 1022.67
1013.65 1014.35 1014.62 1013.91 1013.48 1013.69 1013.99 1014.33 1014.81 1015.47 1015.95 1015.72 1015.63 1014.10 1014.55 1015.31 1016.16 1016.85 1017.96 1018.81 1019.55 1020.10 1020.68 1021.30 1021.31 1021.55 1021.67 1021.73 1021.78 1021.79 1021.61 1021.36 1021.51 1021.47 1021.73 1021.93 1022.14 1022.22 1022.26 1022.24 1022.27 1022.34 1022.55 1022.62
1013.79 1014.17 1014.64 1013.88 1014.06 1013.91 1013.92 1013.85 1013.99 1014.59 1015.30 1014.89 1015.23 1014.38 1015.23 1016.05 1017.26 1018.07 1018.77 1019.77 1020.42 1021.18 1021.77 1022.00 1022.27 1022.61 1022.63 1022.49 1022.52 1022.50 1022.46 1022.40 1022.18 1021.86 1022.13 1022.25 1022.25 1022.30 1022.23 1022.37 1022.47 1022.36 1022.53 1022.56
1013.83 1014.16 1014.34 1013.71 1013.16 1013.43 1013.84 1013.85 1014.07 1014.56 1014.47 1014.16 1013.41 1013.97 1015.40 1016.42 1017.73 1018.72 1019.75 1020.62 1021.37 1022.27 1022.93 1023.15 1023.41 1023.90 1023.80 1023.74 1023.55 1023.30 1023.12 1022.98 1022.95 1022.78 1022.53 1022.49 1022.53 1022.30 1022.22 1022.32 1022.53 1022.46 1022.56 1022.55
1014.14 1014.32 1014.28 1013.60 1013.35 1013.43 1013.07 1013.05 1013.45 1013.73 1013.31 1013.74 1012.23 1013.86 1014.89 1017.02 1018.48 1019.53 1020.56 1021.49 1022.15 1022.69 1023.25 1023.78 1024.08 1024.66 1024.57 1024.45 1024.26 1024.00 1023.66 1023.26 1023.18 1023.11 1023.10 1022.85 1022.59 1022.54 1022.44 1022.37 1022.39 1022.47 1022.53 1022.49
1014.52 1014.25 1014.27 1013.15 1013.42 1013.38 1012.75 1012.34 1012.61 1012.63 1012.43 1013.03 1013.58 1014.40 1016.74 1018.39 1019.65 1020.65 1021.59 1022.18 1022.93 1023.60 1023.99 1024.34 1024.29 1024.78 1025.07 1025.01 1024.83 1024.72 1024.24 1023.72 1023.29 1023.22 1023.04 1022.97 1022.79 1022.54 1022.48 1022.55 1022.27 1022.29 1022.31 1022.26
1014.11 1014.26 1014.14 1012.43 1012.75 1013.04 1012.42 1011.84 1012.11 1012.30 1012.90 1014.08 1015.03 1016.25 1018.18 1019.79 1020.90 1022.00 1022.90 1023.35 1023.77 1024.20 1024.73 1025.00 1025.36 1025.39 1025.92 1025.50 1025.24 1025.13 1024.71 1024.23 1023.80 1023.44 1023.18 1023.09 1022.67 1022.69 1022.54 1022.69 1022.38 1022.20 1022.19 1022.23
1012.93 1013.46 1013.45 1012.35 1012.99 1012.56 1011.81 1012.61 1012.90 1013.64 1015.23 1016.26 1017.37 1018.74 1019.92 1020.88 1022.06 1022.89 1023.67 1024.45 1024.56 1024.90 1025.13 1025.63 1025.99 1026.09 1026.05 1025.81 1025.59 1025.34 1024.94 1024.47 1024.12 1023.73 1023.40 1023.27 1022.95 1022.73 1022.59 1022.63 1022.29 1022.13 1022.08 1022.02
1011.46 1012.16 1012.23 1012.21 1012.09 1012.04 1012.83 1013.98 1014.99 1015.56 1017.51 1018.65 1019.28 1020.35 1021.55 1022.33 1023.16 1024.20 1024.62 1025.07 1025.59 1025.65 1025.88 1026.07 1026.42 1026.20 1026.02 1025.86 1025.58 1025.35 1025.09 1024.68 1024.33 1023.99 1023.74 1023.49 1023.16 1022.91 1022.88 1022.66 1022.31 1022.02 1021.86 1021.75
1010.71 1011.35 1011.95 1012.05 1012.30 1013.06 1014.25 1015.76 1016.85 1017.26 1018.85 1020.08 1020.86 1021.86 1022.38 1023.57 1024.11 1025.02 1025.61 1025.92 1026.06 1026.22 1026.44 1026.62 1026.61 1026.37 1026.46 1026.07 1025.72 1025.31 1025.02 1024.69 1024.26 1023.87 1023.66 1023.33 1023.04 1022.95 1022.87 1022.51 1022.12 1021.74 1021.47 1021.21
1011.40 1011.68 1011.86 1012.41 1013.01 1014.32 1016.74 1017.86 1018.73 1019.63 1020.87 1021.29 1022.14 1022.85 1023.44 1024.19 1025.09 1025.40 1025.76 1026.17 1026.41 1026.63 1026.73 1026.71 1026.70 1026.68 1026.33 1025.97 1025.61 1025.23 1025.00 1024.72 1024.28 1023.90 1023.54 1023.18 1022.95 1022.74 1022.41 1021.99 1021.69 1021.43 1021.14 1020.85
1011.26 1012.08 1012.87 1013.80 1015.04 1016.79 1018.60 1019.28 1020.92 1022.53 1022.46 1023.25 1023.75 1024.35 1024.78 1025.23 1025.57 1025.88 1026.24 1026.63 1026.79 1026.68 1026.91 1026.89 1027.01 1026.73 1025.90 1025.72 1025.46 1025.26 1025.06 1024.58 1024.26 1023.82 1023.45 1023.10 1022.82 1022.51 1022.01 1021.69 1021.31 1020.97 1020.81 1020.57
1012.98 1014.14 1014.74 1016.49 1018.06 1019.82 1020.91 1021.33 1022.71 1023.27 1024.27 1024.91 1025.21 1025.63 1026.02 1025.96 1026.06 1026.27 1026.62 1027.01 1027.02 1027.11 1026.95 1026.72 1026.74 1026.40 1025.87 1025.78 1025.46 1025.16 1024.82 1024.51 1024.10 1023.78 1023.44 1023.06 1022.61 1022.21 1021.82 1021.38 1020.96 1020.63 1020.41 1020.13
1016.02 1016.93 1017.72 1018.99 1021.15 1022.09 1022.86 1023.63 1024.26 1024.88 1025.56 1026.21 1026.51 1027.13 1027.22 1026.99 1027.25 1026.67 1026.61 1026.85 1027.10 1027.15 1027.06 1026.61 1026.31 1026.18 1025.97 1025.72 1025.46 1025.12 1024.69 1024.32 1024.05 1023.63 1023.22 1022.83 1022.46 1021.96 1021.40 1021.12 1020.78 1020.41 1020.08 1019.74
1019.96 1019.91 1020.68 1022.11 1022.95 1023.59 1024.19 1025.20 1026.13 1026.17 1026.61 1026.78 1027.33 1027.64 1027.84 1027.91 1027.12 1027.19 1027.08 1026.99 1027.06 1026.98 1026.93 1026.34 1026.09 1025.94 1025.63 1025.42 1025.17 1024.83 1024.43 1024.19 1023.83 1023.37 1023.02 1022.65 1022.17 1021.69 1021.23 1020.81 1020.45 1020.02 1019.50 1019.10
1023.05 1023.64 1023.75 1023.85 1024.26 1024.74 1025.71 1026.59 1026.85 1026.72 1027.16 1027.52 1027.85 1028.03 1028.07 1027.61 1027.49 1027.44 1027.24 1027.14 1026.93 1026.87 1026.39 1026.05 1025.93 1025.74 1025.50 1025.26 1024.90 1024.51 1024.17 1023.82 1023.51 1023.14 1022.64 1022.29 1021.77 1021.40 1020.93 1020.46 1019.89 1019.38 1018.69 1017.95
Wind_Speed
3 5 4 5 4 3 2 3 5 5 3 3 7 14 24 6 10 10 9 9 10 13 8 8 9 9 8 7 8 7 7 5 4 2 3 2 3 2 3 4 5 6 5 6
5 4 3 3 2 2 2 3 6 7 3 2 6 15 23 7 6 8 11 11 12 6 8 8 9 8 10 8 8 7 6 5 4 2 2 2 3 3 3 2 4 5 5 6
5 2 4 3 2 3 4 5 4 6 6 5 4 8 7 4 3 2 5 6 7 12 11 10 12 11 8 8 8 7 7 6 4 4 3 3 4 3 2 1 2 2 5 5
5 1 4 3 4 6 4 4 2 3 4 4 4 8 9 3 6 4 4 5 7 9 7 8 11 8 10 8 7 7 7 6 4 4 3 4 3 3 2 2 2 3 4 5
6 6 5 5 6 7 7 2 2 2 3 3 2 1 10 3 6 7 7 7 8 7 9 10 12 12 7 8 8 7 7 6 4 4 4 3 2 2 2 3 4 3 3 5
6 1 5 6 2 2 1 2 4 4 3 1 4 6 7 5 7 3 1 5 7 7 7 5 6 7 6 6 7 7 7 5 4 4 3 4 6 5 4 2 3 2 1 3
2 4 1 2 2 2 2 4 5 5 3 7 1 3 11 5 7 5 4 3 7 5 6 6 8 7 7 8 7 6 7 6 5 5 5 4 4 4 5 4 3 3 1 1
4 7 7 5 5 6 5 6 6 6 4 7 4 8 6 3 5 6 6 5 6 5 4 3 4 6 7 7 7 7 7 6 6 5 5 4 5 4 3 3 2 2 2 2
5 7 2 2 2 4 3 4 3 1 0 2 5 7 3 3 6 9 9 9 10 13 12 11 10 7 5 5 5 5 6 5 5 5 5 4 4 5 4 4 3 2 2 3
3 6 4 3 1 2 5 3 3 1 4 6 5 6 6 5 6 6 10 9 12 12 14 13 13 12 10 6 4 5 4 5 5 5 5 4 5 5 5 5 5 4 3 2
4 4 2 3 7 10 2 3 4 2 5 4 4 7 6 6 6 7 9 11 11 13 12 9 9 10 10 10 10 8 5 4 4 4 4 4 4 3 3 2 3 3 2 1
4 5 6 12 3 2 3 7 7 5 5 5 3 8 3 6 5 6 9 11 11 12 11 8 10 8 8 8 8 8 7 8 7 6 5 5 4 1 0 2 3 3 1 1
5 3 4 9 2 2 4 5 5 4 3 8 7 6 5 6 6 7 9 8 9 9 8 8 10 10 9 8 7 6 7 7 6 5 4 4 2 3 3 3 3 2 3 3
3 5 8 15 10 2 4 4 4 7 6 8 14 13 9 8 5 8 9 9 9 8 8 9 9 8 8 7 7 7 7 5 6 6 5 4 4 4 1 1 4 4 4 4
4 7 5 8 10 10 18 18 16 18 21 15 23 19 9 6 7 7 8 8 9 9 9 8 8 7 7 7 6 7 6 5 5 5 4 4 3 5 4 2 4 3 3 4
3 5 6 17 16 17 23 21 20 22 24 24 23 21 9 9 9 10 8 8 8 7 7 7 7 6 5 5 5 6 6 6 4 4 4 4 5 4 3 4 4 4 5 5
7 5 4 18 6 9 17 18 23 20 2 6 12 1 9 8 9 6 5 6 6 6 6 7 7 6 4 5 5 5 6 6 6 5 5 5 4 4 4 4 4 4 5 5
14 8 5 9 3 12 2 6 3 3 6 8 10 8 4 9 8 7 7 5 5 5 6 5 4 4 4 4 5 5 5 6 5 6 5 5 5 5 4 4 4 4 4 5
21 16 7 6 10 8 5 3 3 3 3 1 7 6 4 9 8 7 6 7 5 4 3 2 3 3 4 4 5 5 5 4 4 5 5 5 5 5 5 6 6 5 5 5
11 17 11 7 9 11 2 3 4 2 4 4 5 6 4 2 5 4 4 4 4 4 3 3 4 3 4 5 5 4 5 4 5 5 5 5 5 5 6 6 7 5 5 7
4 4 16 15 12 2 2 4 5 6 2 9 8 6 4 2 2 3 3 3 2 3 4 4 5 4 5 5 3 4 4 5 5 7 6 6 6 6 7 6 4 5 6 7
10 7 7 8 13 15 4 3 1 3 6 6 6 4 5 3 2 3 4 6 7 6 5 5 4 5 5 6 4 5 6 6 8 7 8 7 6 7 8 8 7 7 6 6
3 3 3 2 3 4 8 11 7 6 4 4 3 3 1 2 2 2 3 3 4 6 5 5 4 5 6 6 5 6 8 9 7 7 8 8 8 8 10 9 8 7 5 4
4 5 1 3 2 5 8 10 8 9 7 5 5 4 3 2 2 3 3 4 4 5 6 3 3 6 6 5 8 7 8 8 8 9 8 7 6 10 6 6 7 6 4 4
3 6 3 4 5 7 8 6 4 6 5 5 3 2 3 4 2 2 3 4 5 6 5 3 5 7 8 6 8 7 10 7 8 8 6 7 8 7 7 7 6 7 7 9
6 5 3 2 3 3 5 4 4 6 5 4 3 4 3 3 5 4 4 4 4 8 5 7 8 9 10 9 10 9 7 8 6 8 8 6 7 6 7 6 8 16 19 22
Wind_Direction
2 49 230 229 193 165 164 220 257 247 257 251 230 273 280 242 227 227 225 216 209 207 194 173 166 160 151 151 151 161 157 165 151 135 128 132 105 84 54 50 55 43 37 41
18 236 209 130 153 176 193 262 256 285 185 6 291 282 285 265 224 209 210 218 208 172 165 169 166 167 172 160 164 163 167 164 167 155 156 135 141 102 108 83 62 55 50 44
180 239 145 180 203 223 226 207 230 232 331 264 303 280 305 284 270 206 213 211 186 191 183 176 178 183 163 169 172 166 167 165 157 148 117 88 87 82 96 64 67 55 73 73
229 178 179 202 241 159 278 189 215 278 25 253 26 283 301 302 278 280 244 212 211 178 174 181 179 174 181 180 163 161 157 153 155 152 145 160 169 161 195 140 122 82 74 72
256 176 195 216 221 163 230 155 252 203 196 7 263 124 270 292 271 249 239 213 236 202 179 180 184 187 171 152 167 159 146 146 141 149 161 157 143 116 113 104 122 98 55 61
247 299 189 210 184 190 76 337 53 55 88 334 233 159 277 219 223 200 175 211 203 200 186 161 130 126 138 143 146 146 143 142 137 126 114 148 149 146 130 128 128 135 84 42
299 229 198 162 164 46 100 60 322 336 352 233 164 184 241 310 309 195 174 78 182 180 142 158 153 152 147 158 151 146 146 149 141 116 96 113 131 143 153 160 164 159 109 20
197 312 182 175 204 187 187 159 168 269 246 269 322 247 257 334 19 58 50 64 121 129 97 130 152 148 151 151 151 150 157 148 147 134 121 115 119 126 137 153 153 154 136 154
178 264 135 182 156 141 174 185 185 205 216 323 232 288 290 97 53 43 24 30 44 43 44 46 43 50 91 125 149 153 147 148 156 146 140 134 133 141 150 147 140 139 139 170
225 289 203 152 130 40 163 163 73 1 269 250 267 272 235 171 91 44 38 37 77 71 56 46 45 40 36 43 94 109 140 153 158 157 159 161 156 151 148 151 157 168 189 200
173 166 263 122 201 188 121 227 222 193 168 232 287 257 317 117 99 91 81 75 70 75 70 54 46 39 37 40 39 40 43 107 137 158 154 147 147 146 153 166 167 183 183 288
213 178 236 222 227 222 184 208 177 186 228 229 234 260 83 83 74 104 109 101 88 73 70 66 60 49 44 39 33 33 34 51 39 46 71 71 73 67 64 294 222 165 164 262
193 232 320 319 8 352 212 200 184 116 77 224 245 256 162 129 110 100 102 94 85 75 66 55 49 40 39 34 27 27 32 23 22 50 35 17 345 320 273 252 211 91 335 266
151 216 203 247 248 128 201 215 224 211 216 258 230 261 203 196 159 99 89 80 74 66 50 47 46 31 27 27 24 24 24 20 9 8 6 347 330 318 70 8 262 241 231 249
193 252 223 263 280 279 275 263 255 236 241 239 266 254 297 129 106 96 96 85 77 71 60 55 46 23 19 11 13 18 10 13 3 356 342 335 322 320 236 256 296 305 273 273
168 254 205 258 257 254 262 260 252 248 249 244 253 262 116 103 98 83 72 78 74 60 65 50 50 29 7 357 9 355 350 349 349 336 328 311 300 278 307 281 247 250 266 268
185 199 203 265 226 264 260 255 246 246 269 254 246 53 136 113 103 92 85 71 65 59 42 35 19 12 344 358 359 343 339 333 339 336 334 329 339 332 322 296 289 280 277 280
241 220 227 264 256 245 270 30 329 101 92 108 100 101 77 124 100 98 73 57 52 49 41 25 6 346 327 337 339 334 339 344 342 342 336 337 338 329 322 305 292 284 278 270
220 226 237 237 230 274 222 195 155 188 169 44 135 126 93 129 108 72 82 74 48 34 9 315 290 291 317 332 322 322 316 323 332 328 325 323 316 314 305 296 289 281 278 269
204 222 224 213 237 249 63 96 12 309 222 138 112 83 88 196 216 106 69 52 31 10 350 329 317 318 327 315 315 327 307 303 306 305 295 299 302 294 290 286 282 268 256 269
154 196 226 240 249 201 44 354 302 194 149 111 105 103 80 102 47 107 90 49 30 340 319 344 328 285 284 293 292 316 312 310 311 313 308 302 289 291 279 277 274 272 268 272
211 212 217 233 241 245 319 137 360 65 41 102 97 84 105 119 78 37 32 4 353 347 327 310 295 287 307 322 343 326 324 317 315 306 310 304 294 295 301 294 286 275 266 267
290 359 316 2 59 72 21 84 71 73 88 44 64 82 44 93 57 14 350 320 308 301 302 302 276 305 316 312 315 323 313 311 308 305 299 293 297 300 300 294 290 287 274 269
91 13 89 169 100 87 80 60 62 62 79 62 42 38 11 6 302 343 327 320 311 294 299 267 325 308 292 299 311 292 295 309 303 295 289 288 285 293 288 299 290 286 273 264
349 342 52 65 92 89 60 66 82 83 69 61 29 12 343 312 337 269 316 311 307 302 287 296 304 297 305 305 299 292 303 298 292 291 291 290 289 285 285 277 275 275 268 263
351 0 333 74 24 54 93 89 56 64 43 16 349 322 305 331 336 321 308 279 277 280 314 318 313 308 304 301 294 295 290 295 290 300 296 291 298 291 286 290 288 285 290 292